Location: Unspecified
(0.0000°N, 0.0000°E)
Time: 19:43:28
(UTC+00:00)

N. Korean satellite - Pass Details

Date: 21 September 2019
Orbit: 455 x 509 km, 97.2° (Epoch: 17 September)

Event Time Altitude Azimuth Distance (km) Brightness Sun altitude
Rises 04:45:20 0° 44° (NE) 2,473 10.9 -17.0°
Reaches altitude 10° 04:48:19 10° 74° (ENE) 1,613 10.4 -16.2°
Maximum altitude 04:49:55 13° 102° (ESE) 1,458 10.2 -15.8°
Drops below altitude 10° 04:51:31 10° 129° (SE) 1,629 10.0 -15.4°
Sets 04:54:33 0° 159° (SSE) 2,523 10.5 -14.7°
